Temp
68 70 77 78 79 78 78 78 78 78 78 78 79 78 78 78 78 78 78 79 79 79 80 80 79 79 79 79 78 78 78 78 78 77 76 77 78 79 78 77 76 76 79
70 72 77 78 78 78 78 78 78 77 77 78 78 78 78 78 78 78 78 78 79 79 79 79 79 79 78 78 77 77 77 76 75 74 74 74 75 78 78 76 76 77 79
70 73 74 77 77 78 78 77 77 77 77 78 78 78 78 78 78 78 79 79 79 79 79 79 79 78 78 77 77 77 76 75 74 74 73 69 71 77 78 76 77 78 78
71 72 73 76 77 77 77 77 77 77 77 77 78 78 78 78 78 78 78 79 79 78 78 78 78 77 77 76 76 76 76 75 73 72 69 70 74 76 77 78 78 78 78
70 71 73 76 77 77 77 77 77 77 77 77 77 77 78 78 78 78 78 78 77 77 77 77 76 76 76 76 76 76 75 74 72 70 67 67 69 75 77 79 79 78 77
69 70 73 75 76 76 76 76 77 77 77 77 77 77 77 78 78 78 77 76 76 75 76 76 76 75 75 75 76 76 75 74 71 65 65 68 68 77 76 76 77 77 77
68 69 71 75 75 76 76 76 76 76 76 77 77 77 77 77 77 77 76 75 75 75 76 76 76 75 74 74 76 75 74 71 66 65 65 65 68 77 78 77 77 77 77
65 67 69 73 75 75 75 75 75 76 76 76 76 76 77 77 76 76 76 75 75 76 76 76 75 75 74 74 74 74 72 70 67 66 66 66 70 76 79 77 77 77 76
64 65 66 67 70 72 73 73 74 74 75 75 75 75 74 73 74 76 75 75 75 75 75 75 74 74 74 74 73 72 71 69 65 66 68 67 71 76 78 78 76 76 77
62 62 62 63 65 66 66 71 71 72 72 73 72 72 70 70 71 72 73 73 75 74 74 74 74 74 74 73 72 71 70 69 64 66 68 69 74 75 77 76 76 76 76
62 61 60 61 61 62 64 66 69 69 70 70 68 68 67 67 67 68 69 70 72 73 74 74 74 73 72 71 71 70 68 62 62 64 65 70 75 74 76 76 76 76 77
57 60 59 59 60 60 66 61 61 63 61 61 62 62 64 64 65 67 66 67 70 71 71 73 73 72 69 67 66 68 62 62 62 64 65 70 75 77 76 75 76 76 75
58 60 60 60 59 59 59 58 57 57 57 58 60 60 61 63 63 63 63 64 65 66 67 69 69 68 67 66 66 65 63 62 62 63 66 70 73 76 76 76 75 75 75
53 57 59 59 59 58 57 57 57 57 57 57 58 60 58 60 61 61 62 63 63 64 65 65 65 66 66 66 65 65 64 63 62 63 64 67 71 74 75 76 75 75 75
47 51 56 58 57 58 57 55 55 56 56 57 58 59 58 57 59 60 61 62 62 63 64 63 63 64 65 65 65 65 64 64 64 64 63 64 68 71 74 76 75 75 75
46 47 50 54 57 57 55 55 55 55 56 56 56 57 59 58 57 60 61 61 62 62 63 63 63 63 63 64 64 64 64 64 64 65 65 66 66 68 72 74 76 76 75
45 46 47 51 52 55 55 55 54 54 57 55 56 57 58 58 57 58 59 60 61 62 63 62 62 62 63 64 64 64 64 63 64 64 64 65 66 65 68 73 74 75 75
44 45 47 49 48 50 54 53 54 54 53 54 55 55 57 58 58 56 57 58 59 60 61 61 63 63 63 63 63 63 62 63 63 63 64 65 65 66 67 69 72 74 74
43 44 45 47 46 47 48 53 53 53 53 53 53 54 56 57 58 56 56 57 58 58 58 59 61 63 62 62 62 61 60 60 61 63 62 65 66 66 65 66 67 69 71
41 43 44 46 46 47 47 49 52 54 54 53 53 54 56 56 57 56 55 56 57 56 56 56 56 57 62 62 61 61 59 59 60 60 61 63 66 66 66 65 66 68 65
39 40 42 42 45 45 45 45 46 46 51 53 53 55 55 55 56 55 55 55 55 55 56 55 55 55 54 57 59 59 60 62 58 60 61 61 61 64 64 63 64 65 66
37 38 40 41 43 44 44 45 47 46 49 51 51 54 55 54 55 56 55 55 55 55 54 54 54 55 54 54 54 53 50 53 59 60 59 60 60 61 61 62 62 62 64
35 35 38 39 42 42 43 44 45 48 47 44 45 47 51 55 54 54 54 54 54 54 54 53 53 54 52 52 57 53 51 49 49 55 59 60 59 59 62 63 63 62 63
35 36 36 37 39 41 41 40 40 40 39 43 44 46 47 51 54 54 54 54 56 54 53 53 54 52 52 51 52 59 56 54 48 48 52 56 59 60 58 59 61 60 61
35 34 35 37 37 38 38 39 37 37 39 42 43 44 46 48 47 54 53 53 55 56 55 53 52 51 51 51 50 50 52 53 54 53 51 51 52 55 59 60 60 61 61
34 34 34 34 35 37 37 37 36 35 36 37 38 40 43 44 46 48 55 53 53 53 53 53 52 51 51 50 50 50 51 51 50 50 51 49 50 53 54 56 57 59 60
MSLP
1015.30 1015.08 1015.01 1015.07 1015.09 1015.23 1015.37 1015.63 1015.77 1015.85 1016.05 1016.07 1016.23 1016.37 1016.48 1016.61 1016.70 1016.78 1016.88 1016.94 1017.03 1017.11 1017.20 1017.27 1017.31 1017.39 1017.55 1017.58 1017.65 1017.79 1017.81 1017.89 1018.08 1018.18 1018.22 1018.26 1018.35 1018.39 1018.53 1018.72 1018.78 1018.80 1018.81
1015.05 1015.14 1015.16 1015.18 1015.20 1015.39 1015.66 1015.75 1015.93 1016.10 1016.25 1016.37 1016.48 1016.61 1016.68 1016.80 1016.96 1017.09 1017.13 1017.23 1017.31 1017.38 1017.43 1017.47 1017.58 1017.68 1017.84 1017.97 1018.05 1018.14 1018.24 1018.36 1018.49 1018.58 1018.65 1018.73 1018.70 1018.66 1018.80 1018.99 1019.00 1019.05 1019.18
1015.19 1015.19 1015.31 1015.38 1015.42 1015.58 1015.76 1015.97 1016.15 1016.35 1016.44 1016.65 1016.70 1016.75 1016.88 1016.98 1017.18 1017.27 1017.32 1017.38 1017.47 1017.53 1017.60 1017.70 1017.87 1017.99 1018.12 1018.26 1018.39 1018.48 1018.61 1018.75 1018.85 1018.90 1018.97 1019.08 1019.08 1018.91 1019.04 1019.17 1019.21 1019.31 1019.52
1015.27 1015.42 1015.58 1015.63 1015.73 1015.77 1015.98 1016.14 1016.39 1016.53 1016.63 1016.71 1016.81 1016.98 1017.06 1017.14 1017.29 1017.48 1017.49 1017.57 1017.58 1017.72 1017.84 1018.05 1018.21 1018.41 1018.52 1018.62 1018.68 1018.78 1018.90 1019.06 1019.14 1019.24 1019.29 1019.33 1019.32 1019.19 1019.26 1019.38 1019.48 1019.60 1019.80
1015.59 1015.71 1015.84 1015.90 1016.01 1016.10 1016.20 1016.32 1016.44 1016.58 1016.73 1016.85 1016.97 1017.04 1017.15 1017.23 1017.33 1017.50 1017.65 1017.71 1017.79 1017.95 1018.08 1018.28 1018.48 1018.62 1018.79 1018.93 1019.00 1019.04 1019.14 1019.32 1019.46 1019.50 1019.61 1019.64 1019.62 1019.57 1019.50 1019.51 1019.66 1019.85 1020.05
1015.92 1016.00 1016.07 1016.18 1016.30 1016.37 1016.48 1016.52 1016.58 1016.71 1016.83 1016.98 1017.07 1017.17 1017.20 1017.32 1017.42 1017.52 1017.75 1017.86 1017.99 1018.13 1018.28 1018.44 1018.67 1018.79 1018.93 1019.09 1019.18 1019.29 1019.34 1019.48 1019.63 1019.79 1019.88 1019.94 1019.88 1019.74 1019.75 1019.89 1020.01 1020.14 1020.27
1016.10 1016.14 1016.26 1016.34 1016.47 1016.57 1016.68 1016.77 1016.86 1016.93 1017.00 1017.08 1017.17 1017.24 1017.32 1017.41 1017.50 1017.55 1017.78 1018.00 1018.14 1018.25 1018.39 1018.53 1018.79 1018.97 1019.07 1019.15 1019.25 1019.42 1019.59 1019.70 1019.78 1019.88 1020.09 1020.16 1020.18 1019.87 1019.98 1020.19 1020.28 1020.37 1020.46
1016.49 1016.39 1016.45 1016.51 1016.62 1016.74 1016.84 1016.93 1016.98 1017.07 1017.13 1017.20 1017.25 1017.34 1017.42 1017.45 1017.60 1017.75 1017.90 1017.99 1018.15 1018.32 1018.40 1018.57 1018.72 1018.95 1019.19 1019.29 1019.42 1019.59 1019.77 1019.84 1019.87 1019.91 1020.04 1020.16 1020.13 1019.98 1019.94 1020.27 1020.39 1020.49 1020.59
1016.83 1016.95 1016.92 1016.92 1016.95 1016.98 1017.08 1017.15 1017.20 1017.21 1017.25 1017.31 1017.37 1017.42 1017.48 1017.58 1017.64 1017.74 1017.91 1018.05 1018.11 1018.27 1018.46 1018.56 1018.73 1018.92 1019.19 1019.31 1019.50 1019.69 1019.83 1019.94 1020.01 1020.01 1020.01 1020.09 1020.05 1019.94 1019.87 1020.12 1020.30 1020.54 1020.62
1017.35 1017.38 1017.36 1017.36 1017.38 1017.40 1017.36 1017.30 1017.37 1017.38 1017.40 1017.40 1017.47 1017.51 1017.54 1017.63 1017.70 1017.81 1017.87 1017.99 1018.08 1018.23 1018.40 1018.53 1018.73 1018.94 1019.10 1019.28 1019.52 1019.69 1019.83 1019.98 1020.12 1020.08 1020.06 1020.05 1019.93 1019.69 1019.81 1020.04 1020.23 1020.42 1020.55
1017.81 1017.71 1017.60 1017.59 1017.60 1017.59 1017.58 1017.56 1017.49 1017.48 1017.53 1017.55 1017.59 1017.66 1017.75 1017.81 1017.83 1017.88 1017.96 1018.06 1018.05 1018.08 1018.26 1018.49 1018.61 1018.82 1019.10 1019.31 1019.51 1019.68 1019.85 1020.12 1020.16 1020.20 1020.18 1020.06 1019.93 1020.07 1020.15 1020.19 1020.40 1020.52 1020.65
1018.31 1018.03 1017.98 1017.93 1017.89 1017.82 1017.66 1017.67 1017.80 1017.82 1017.82 1017.79 1017.76 1017.80 1017.87 1017.90 1017.97 1018.04 1018.06 1018.06 1018.06 1018.09 1018.22 1018.31 1018.53 1018.76 1019.07 1019.42 1019.57 1019.67 1019.89 1020.04 1020.18 1020.19 1020.18 1020.16 1020.05 1020.01 1020.13 1020.36 1020.52 1020.79 1020.95
1019.82 1019.02 1018.38 1018.06 1017.95 1017.99 1017.90 1017.91 1018.00 1018.00 1017.97 1017.91 1017.88 1017.87 1017.88 1017.93 1017.95 1018.01 1018.11 1018.19 1018.18 1018.16 1018.27 1018.30 1018.52 1018.79 1019.02 1019.30 1019.47 1019.67 1019.82 1019.92 1020.05 1020.07 1020.09 1020.09 1020.15 1020.20 1020.30 1020.50 1020.64 1020.93 1021.11
1020.97 1020.08 1019.27 1019.15 1018.72 1018.16 1018.01 1017.99 1018.04 1018.12 1018.06 1018.05 1017.92 1017.82 1017.92 1017.94 1017.95 1017.97 1018.04 1018.06 1018.16 1018.21 1018.28 1018.37 1018.47 1018.60 1018.85 1019.08 1019.26 1019.45 1019.67 1019.81 1019.91 1020.01 1020.04 1020.09 1020.18 1020.35 1020.32 1020.43 1020.62 1020.85 1021.02
1021.94 1021.35 1020.17 1019.13 1018.72 1018.98 1018.47 1018.17 1018.12 1018.05 1018.03 1017.99 1017.91 1017.88 1017.89 1017.92 1017.88 1017.83 1017.86 1017.96 1017.99 1018.03 1018.16 1018.37 1018.56 1018.57 1018.70 1018.88 1019.10 1019.27 1019.51 1019.62 1019.72 1019.84 1019.95 1019.97 1019.98 1020.14 1020.28 1020.39 1020.41 1020.63 1020.84
1023.19 1022.30 1021.29 1019.95 1018.88 1018.42 1018.59 1018.81 1018.45 1018.27 1018.06 1017.99 1017.94 1017.85 1017.85 1017.91 1017.88 1017.77 1017.70 1017.71 1017.77 1017.87 1017.94 1018.03 1018.20 1018.46 1018.58 1018.67 1018.83 1018.92 1019.12 1019.32 1019.45 1019.55 1019.60 1019.70 1019.81 1019.89 1020.03 1020.19 1020.31 1020.44 1020.59
1024.29 1023.38 1022.04 1020.95 1020.26 1019.05 1018.68 1018.68 1018.77 1018.88 1018.61 1018.27 1018.04 1017.94 1017.85 1017.79 1017.85 1017.80 1017.69 1017.62 1017.61 1017.65 1017.72 1017.97 1018.16 1018.29 1018.50 1018.60 1018.79 1018.69 1018.74 1018.87 1019.08 1019.29 1019.38 1019.50 1019.50 1019.64 1019.78 1019.93 1020.01 1020.27 1020.40
1025.06 1023.96 1023.13 1022.15 1021.26 1020.26 1019.40 1018.99 1018.75 1018.68 1018.73 1018.84 1018.45 1018.21 1018.06 1017.95 1017.91 1017.98 1017.90 1017.66 1017.49 1017.64 1017.76 1017.89 1018.11 1018.32 1018.46 1018.62 1018.60 1018.60 1018.64 1018.70 1018.74 1018.81 1018.97 1019.12 1019.27 1019.38 1019.48 1019.56 1019.71 1019.94 1020.14
1025.79 1024.88 1023.81 1022.99 1022.25 1021.65 1020.91 1019.91 1019.24 1018.93 1018.94 1018.78 1018.89 1018.69 1018.30 1018.13 1018.06 1018.15 1018.09 1017.81 1017.56 1017.53 1017.73 1018.02 1018.19 1018.26 1018.30 1018.42 1018.51 1018.50 1018.51 1018.65 1018.59 1018.71 1018.75 1018.73 1018.82 1019.05 1019.19 1019.10 1019.16 1019.49 1019.74
1026.31 1025.53 1024.77 1023.90 1023.12 1022.32 1021.80 1021.10 1020.06 1019.51 1019.26 1019.02 1018.79 1018.70 1018.57 1018.32 1018.16 1018.09 1018.05 1017.92 1017.79 1017.75 1017.80 1017.98 1018.13 1018.27 1018.24 1018.21 1018.28 1018.31 1018.29 1018.28 1018.29 1018.40 1018.37 1018.45 1018.47 1018.48 1018.52 1018.62 1018.78 1019.00 1019.25
1026.77 1025.95 1025.34 1024.61 1023.94 1023.20 1022.46 1022.16 1021.47 1021.20 1020.33 1019.64 1019.20 1019.00 1018.61 1018.34 1018.09 1018.14 1018.08 1017.90 1017.77 1017.81 1017.60 1017.76 1017.98 1018.20 1018.32 1018.27 1018.36 1018.24 1018.05 1018.03 1018.07 1018.03 1017.85 1017.82 1017.94 1018.03 1018.17 1018.25 1018.36 1018.46 1018.69
1027.57 1027.09 1026.33 1025.80 1025.11 1024.54 1024.11 1023.60 1023.14 1022.41 1021.76 1020.84 1020.55 1019.61 1018.94 1018.56 1018.17 1017.97 1017.82 1017.92 1017.85 1017.73 1017.61 1017.57 1017.74 1018.03 1018.21 1018.12 1018.19 1018.45 1018.38 1018.13 1017.84 1017.68 1017.64 1017.70 1017.64 1017.56 1017.77 1017.91 1018.08 1018.16 1018.31
1027.97 1027.65 1027.27 1026.82 1026.11 1025.51 1025.00 1024.26 1023.36 1022.24 1021.91 1021.38 1021.07 1020.47 1020.04 1019.02 1018.39 1017.97 1017.71 1017.57 1017.62 1017.67 1017.46 1017.34 1017.40 1017.67 1017.87 1018.00 1017.94 1017.98 1018.39 1018.25 1018.07 1017.71 1017.58 1017.57 1017.60 1017.60 1017.36 1017.39 1017.49 1017.63 1017.79
1028.93 1028.54 1028.14 1027.63 1026.91 1026.20 1025.62 1024.98 1024.55 1023.95 1023.40 1022.81 1022.28 1021.50 1020.74 1019.61 1018.55 1017.93 1017.54 1017.33 1017.08 1017.20 1017.28 1017.11 1017.07 1017.16 1017.49 1017.76 1017.84 1017.53 1017.70 1017.84 1017.98 1017.98 1017.69 1017.65 1017.55 1017.50 1017.46 1017.44 1017.46 1017.39 1017.56
1029.44 1029.03 1028.57 1027.98 1027.32 1026.78 1026.28 1025.83 1025.40 1024.79 1024.21 1023.15 1022.25 1021.56 1020.84 1019.83 1019.39 1018.26 1017.38 1016.94 1016.80 1016.61 1016.57 1016.71 1016.81 1016.91 1016.95 1017.15 1017.39 1017.48 1017.62 1017.67 1017.71 1018.00 1017.82 1017.71 1017.62 1017.34 1017.20 1017.16 1017.16 1017.23 1017.16
1029.86 1029.51 1029.04 1028.42 1027.82 1027.20 1026.67 1026.32 1025.95 1025.17 1024.27 1023.46 1022.65 1021.74 1020.89 1020.39 1019.49 1018.86 1017.43 1016.48 1016.12 1016.09 1015.98 1015.95 1016.16 1016.28 1016.47 1016.66 1016.79 1017.05 1017.14 1017.18 1017.28 1017.55 1017.79 1017.75 1017.52 1017.13 1016.87 1016.95 1017.00 1016.87 1016.82
Wind_Speed
3 3 5 5 8 8 10 11 10 11 11 11 12 12 12 12 12 12 12 12 12 11 11 12 12 12 12 11 12 13 14 14 13 12 9 9 10 13 14 13 13 9 16
6 4 6 6 8 9 9 9 8 9 9 9 10 10 10 10 11 9 9 10 10 10 10 11 11 13 13 12 11 12 12 13 12 10 9 8 8 9 12 13 12 12 16
6 5 5 7 8 8 8 9 8 8 7 8 9 9 9 9 9 9 8 8 9 9 10 11 11 11 11 12 11 12 12 11 10 9 8 4 4 9 12 13 14 15 15
5 5 5 7 8 8 8 8 8 8 7 7 7 8 8 9 8 8 7 8 8 8 10 11 11 10 10 10 11 11 10 9 8 8 4 3 3 8 15 16 16 16 15
5 5 4 7 7 7 7 7 7 7 7 6 6 6 8 8 8 7 6 5 6 8 9 11 10 10 8 8 8 9 9 8 7 5 4 3 2 5 14 15 14 14 12
5 5 5 6 6 5 5 5 5 5 6 6 6 6 7 7 8 6 5 5 8 8 9 10 10 9 7 6 8 8 8 6 3 1 1 1 1 4 11 12 13 12 12
5 5 4 6 6 5 4 3 3 3 3 3 4 5 6 6 7 7 6 6 7 7 8 8 8 8 6 6 6 8 6 4 2 2 4 3 3 5 9 11 12 12 12
3 3 3 5 5 5 4 3 2 2 2 1 1 3 4 5 6 5 6 7 7 8 9 9 8 8 6 5 7 7 5 2 2 3 3 3 6 8 11 12 12 12 12
3 1 1 0 2 4 3 2 2 2 1 1 2 2 3 3 4 5 6 7 8 8 8 9 8 8 6 5 6 6 4 2 2 1 1 2 7 13 14 15 13 12 13
1 1 0 1 1 1 1 3 3 3 3 3 3 3 3 3 4 5 5 6 8 8 8 8 8 9 7 6 6 6 4 3 2 2 2 2 3 10 13 13 14 14 14
2 2 1 2 2 2 2 2 3 3 4 4 4 5 4 2 3 4 4 6 7 9 9 9 8 8 8 7 6 6 5 1 1 1 2 5 3 8 6 10 10 11 13
4 4 3 3 4 3 3 2 1 2 2 2 2 3 2 2 3 4 5 6 6 7 9 9 9 9 6 3 3 5 2 3 2 2 2 5 5 7 9 8 6 7 7
9 7 4 4 4 4 4 2 1 1 1 2 3 3 2 2 2 2 2 3 3 4 3 4 4 4 5 4 3 3 3 3 2 2 3 5 7 8 9 9 8 7 7
15 13 9 8 7 6 2 3 3 2 2 3 4 3 2 2 3 3 2 3 3 2 4 4 3 4 5 5 5 4 4 3 2 2 3 5 7 8 9 10 11 10 9
18 18 15 11 5 7 5 3 3 4 3 3 3 3 2 3 3 3 4 3 3 3 3 3 3 4 5 5 5 5 5 5 5 3 3 6 7 8 9 11 12 12 11
18 18 18 17 9 4 4 6 4 3 4 3 3 3 3 2 3 3 3 3 4 3 3 3 4 4 4 4 6 6 6 5 5 5 4 4 8 8 10 10 13 13 12
15 17 18 18 18 13 6 4 3 4 4 3 3 4 4 3 4 4 3 3 2 2 3 3 3 2 3 3 6 5 5 6 5 6 5 4 4 8 10 14 14 14 13
17 19 17 17 19 19 14 6 4 3 3 4 4 3 4 4 4 4 3 4 3 2 2 2 2 2 3 4 6 5 4 4 5 6 4 4 4 3 7 13 14 15 14
16 17 18 18 20 18 17 12 7 5 4 3 4 4 6 5 5 4 4 4 4 3 3 2 2 2 3 3 4 4 3 4 5 3 6 6 6 6 5 8 14 14 14
15 16 17 15 18 17 13 12 10 8 7 4 4 3 6 4 6 4 4 5 3 2 3 2 3 2 2 2 2 4 4 4 4 5 6 4 5 7 7 6 6 9 10
16 17 19 18 18 15 13 14 11 12 10 9 5 7 6 5 5 5 4 4 4 4 5 4 2 4 3 3 2 3 3 7 5 5 5 5 6 6 5 5 5 5 5
15 16 16 16 16 14 10 9 5 9 9 9 12 14 10 6 6 5 5 5 5 4 5 4 4 3 2 3 3 2 2 3 5 7 4 4 6 4 5 6 6 6 5
15 16 15 16 15 14 15 9 8 3 7 9 12 11 16 15 8 6 6 5 5 4 4 5 5 6 4 2 6 4 2 4 1 1 6 4 4 3 4 6 7 7 7
13 11 12 13 14 14 14 12 13 9 8 6 8 9 12 16 15 8 7 6 6 4 5 5 4 4 4 4 1 6 2 3 2 3 1 3 4 4 4 3 4 5 5
12 12 12 13 12 13 14 13 10 10 7 8 8 12 12 13 16 18 9 8 8 6 6 6 5 5 4 4 4 2 4 3 3 3 4 2 2 4 3 4 5 5 6
10 10 11 13 13 14 12 12 12 13 13 10 11 10 9 10 11 15 18 9 9 8 8 7 7 7 6 4 4 4 4 3 3 3 6 4 5 4 3 4 4 5 5
Wind_Direction
198 176 128 127 126 126 127 123 114 108 108 108 111 108 107 106 101 97 105 103 98 97 96 98 100 99 98 97 94 100 97 96 92 86 79 96 100 112 110 105 95 100 103
139 158 133 124 129 135 128 119 118 110 113 114 115 115 113 110 110 103 105 106 106 107 109 108 105 105 102 98 96 96 101 101 91 79 75 72 90 120 121 121 113 108 105
127 142 119 110 116 129 126 126 125 120 118 121 120 118 117 115 119 118 119 119 121 120 120 111 109 104 106 105 102 103 107 101 91 79 83 71 70 126 128 122 109 108 106
125 118 124 128 120 122 132 137 137 137 135 130 135 130 128 125 127 126 126 129 125 121 122 118 115 111 112 112 113 110 108 104 90 73 71 81 67 116 130 122 120 118 118
120 126 141 135 134 129 126 132 145 145 145 144 143 144 144 139 139 139 140 137 126 124 130 127 124 117 118 119 123 123 116 108 83 64 66 67 60 106 136 132 120 120 123
144 142 153 139 139 128 130 128 134 151 157 161 155 159 164 158 153 149 120 104 126 135 144 143 137 126 122 128 142 133 127 119 71 15 68 341 75 139 115 118 121 128 122
158 157 160 156 156 153 147 139 142 148 157 170 182 169 175 179 176 156 147 135 142 152 154 162 146 134 129 118 132 131 118 90 63 215 218 226 243 191 137 134 142 141 136
151 160 161 155 149 148 158 166 171 182 189 196 201 216 202 201 197 188 182 169 168 172 169 169 164 152 147 137 109 125 123 67 49 126 174 212 228 227 164 161 161 154 145
73 78 25 188 176 165 167 183 212 240 258 242 241 249 246 250 234 213 206 204 189 187 184 177 180 162 167 158 133 132 129 81 37 243 188 233 240 227 196 179 173 158 147
61 350 23 338 287 228 214 213 241 269 282 289 290 287 280 275 274 262 232 223 206 199 191 188 192 179 177 170 154 154 151 109 10 264 283 280 302 248 207 189 171 160 156
300 262 247 238 253 235 234 271 251 273 282 296 315 318 318 303 286 270 256 246 239 212 202 197 190 183 177 177 175 171 152 157 198 241 284 292 286 137 162 156 169 157 154
243 279 255 253 249 246 255 226 258 305 317 299 297 294 297 284 279 288 285 270 251 247 225 210 197 187 171 178 184 180 171 182 192 207 232 264 234 172 151 151 141 144 154
328 320 279 255 248 236 239 228 251 285 281 267 276 276 271 272 276 276 283 292 280 260 241 224 211 182 177 180 186 186 200 203 206 203 241 251 246 206 173 170 159 163 168
342 328 322 313 296 257 248 217 228 242 255 265 255 249 232 242 247 251 247 247 244 250 251 229 199 191 188 187 191 188 202 211 226 231 229 233 247 238 219 189 185 185 186
0 349 334 313 280 296 265 249 242 237 244 256 266 265 226 229 236 239 246 250 242 209 210 223 236 210 191 191 197 199 199 209 222 222 237 245 229 239 254 219 206 197 197
0 354 347 345 322 298 271 300 282 267 256 252 263 259 260 245 251 256 253 246 240 222 227 212 202 206 227 202 205 202 209 208 215 219 220 232 238 232 234 249 222 214 209
6 358 3 360 356 353 321 308 305 303 298 276 271 284 276 254 257 259 252 251 249 227 215 203 220 190 208 214 239 218 207 208 215 222 224 226 229 233 232 234 232 227 220
4 13 10 10 8 2 359 339 332 324 302 306 311 312 299 289 272 268 262 253 224 206 215 206 207 205 228 239 243 234 225 215 219 219 216 218 222 227 242 235 233 226 225
6 8 15 18 16 8 360 350 344 335 339 325 324 318 308 305 291 266 268 268 245 203 188 192 222 208 201 206 237 247 224 222 226 223 237 223 219 215 227 228 219 232 227
10 11 13 17 19 17 12 2 351 359 354 329 323 309 310 308 306 288 263 260 243 204 198 193 204 234 253 237 226 247 231 231 222 216 222 229 230 222 218 215 215 219 213
14 14 15 10 13 15 16 10 1 347 327 344 345 329 316 305 301 294 279 260 236 226 213 194 189 211 246 217 238 276 269 253 235 225 221 212 209 221 219 217 210 201 202
15 11 13 11 10 16 8 8 359 340 359 335 356 343 329 317 305 291 263 257 245 234 223 197 175 188 238 206 176 136 287 315 246 241 232 229 229 195 204 213 212 207 208
15 11 3 3 8 12 4 357 352 341 360 358 352 345 338 320 310 293 277 256 249 235 227 205 190 182 199 219 220 163 178 227 324 313 247 239 244 228 220 210 214 215 210
7 3 357 2 2 8 3 2 4 1 345 339 331 330 326 327 313 292 272 255 243 225 232 222 202 193 163 203 207 228 191 168 152 332 328 288 268 236 237 247 249 231 219
358 358 352 355 357 0 2 0 351 346 332 319 325 330 332 334 326 315 277 257 245 231 224 212 203 204 191 181 179 166 215 217 212 213 263 279 313 257 240 225 228 230 223
354 355 350 353 351 350 352 352 347 337 331 328 328 325 331 325 326 315 310 256 239 230 219 214 211 200 196 200 183 189 189 188 184 185 244 236 241 261 227 233 231 234 231